Погода в Колках

Украина / Ровненская область     51°35′18″N   26°37′11″E
темп.,
°C
ветер,
м/с
пор.,
м/с
влажн.,
%
обл.,
%
осадки,
мм/ч
давл.,
гПа
погр.,
м
27 ноября, сб
сб2723:00+5юв61482100 0.0 997739
02:00+6юв61490100 3.2 993851
05:00+6ююз51090100 0.8 991613
08:00+6ююз41190100 1.1 991561
11:00+7юз9137568 0.1 993998
14:00+4юз71280100 0.1 996885
17:00+4зюз61174100 0.0 999956
20:00+3зюз487346 0.0 1000707
28 ноября, вс
вс2823:00+1юз35886 0.0 1002112
02:000ю339180 0.0 100257
05:00+2ююв2486100 0.0 1002132
08:00+3юв2385100 0.0 100269
11:00+4юв2596100 1.9 1002147
14:00+5в2587100 3.6 1000175
17:00+5вюв3794100 3.1 999214
20:00+5ююв3892100 3.1 998206
29 ноября, пн
пн2923:00+4юв3691100 0.0 997101
02:00+4юв3790100 0.0 995116
05:00+4вюв4891100 0.0 992157
08:00+5юв3795100 0.0 990188
11:00+6ю4897100 0.5 988396
14:00+2з71495100 1.6 989660
17:00+2з71281100 0.0 9911053
20:00+2зюз81581100 0.1 9921397
30 ноября, вт
вт3023:00+1зюз91794100 0.3 9921300
02:00+1з101885100 0.4 9931342
05:000зюз11189196 0.2 9941187
08:00+1з10189196 0.3 9971201
11:00+2з9147239 0.1 10001180
14:00+1з81371100 0.1 10011229
17:00−1з71273100 0.0 1002834
20:00−1зюз61186100 0.1 1002810
1 декабря, ср
ср123:00−1зюз51184100 0.0 1001537
02:00−1юз51186100 0.0 1000621
05:00−1ююз41197100 1.0 999652
08:00−1юз389898 1.2 1000292
11:00+1з249998 0.4 1002188
14:00+1з3796100 0.7 1002734
17:00+1юз4998100 0.3 1003561
20:00+1юз599387 0.3 1002533